Regional Weather Roundup
Issued by NWS State College, PA

Home | Current Version | Previous Version | Graphics & Text | Print | Product List | Glossary On
Versions: 1 2 3 4 5 6 7 8 9 10 11 12 13 14 15 16 17 18 19 20 21 22 23 24 25 26 27 28 29 30 31 32 33 34 35 36 37 38 39 40 41 42 43 44 45 46 47 48 49 50
232
ASUS41 KCTP 060110
RWRCTP

REGIONAL WEATHER ROUNDUP
NATIONAL WEATHER SERVICE STATE COLLEGE PA
800 PM EST MON DEC 05 2016

Note: "fair" indicates few or no clouds below 12,000 feet with no
significant weather and/or obstructions to visibility.

* = STATION THAT DOES NOT REPORT PRECIPITATION /E.G. RAIN...SNOW...ETC/
    THUNDER OR FOG.

PAZ002>004-007>009-013>016-020>023-029>032-060200-
WESTERN PENNSYLVANIA

CITY           SKY/WX    TMP DP  RH WIND       PRES   REMARKS
ERIE           CLOUDY    39  29  67 SW6       30.10S
MEADVILLE      CLEAR     34  27  75 S3        30.08R
FRANKLIN*        N/A     34  25  69 CALM      30.09S
NEW CASTLE     FAIR      30  27  88 CALM      30.10S
BEAVER COUNTY  CLEAR     34  28  80 CALM      30.08F
BUTLER*        PTCLDY    30  25  80 CALM      30.11F
PITTSBURGH INT CLOUDY    36  29  75 NE6       30.08S
PITTSBURGH     PTCLDY    36  26  67 NE3       30.07F
INDIANA*       CLOUDY    34  30  86 CALM      30.11F
LATROBE        CLEAR     32  28  86 CALM      30.10S
WASHINGTON CO* CLOUDY    28  25  86 CALM      30.08S
$$

PAZ004>006-010>012-017>019-024>028-033>037-041-042-045-046-049>053-060200-
CENTRAL PENNSYLVANIA

CITY           SKY/WX    TMP DP  RH WIND       PRES   REMARKS
BRADFORD       CLOUDY    33  28  81 W5        30.05R
DUBOIS         CLOUDY    33  28  81 CALM      30.07R
CLEARFIELD     CLOUDY    34  29  82 SW3       30.09R
JOHNSTOWN      CLOUDY    33  27  78 NW3       30.05S
ALTOONA        CLOUDY    37  28  70 CALM      30.08F
STATE COLLEGE  CLEAR     36  28  75 W7        30.09R
WILLIAMSPORT   CLOUDY    42  31  64 CALM      30.10R
SELINSGROVE    PTCLDY    31  31 100 E3        30.11R
FT INDIANTOWN  CLOUDY    41  30  64 W6        30.10R
CAPITAL CITY   CLOUDY    42  28  57 W5        30.11R
HARRISBURG     CLOUDY    38  32  79 NW3       30.10R
YORK           MOCLDY    33  31  92 NW3       30.10R
$$

PAZ038>040-043-044-047-048-054-055-060>062-067>071-060200-
EASTERN PENNSYLVANIA

CITY           SKY/WX    TMP DP  RH WIND       PRES   REMARKS
SCRANTON       CLOUDY    38  28  67 CALM      30.05R
MOUNT POCONO   CLOUDY    33  26  75 NW6       30.01R
ALLENTOWN      CLOUDY    39  29  67 W6        30.08R
QUAKERTOWN*    PTCLDY    37  30  75 NW3       30.09R
READING        CLOUDY    39  29  67 W6        30.09R
LANCASTER      PTCLDY    40  31  70 NW6       30.10R
COATESVILLE    PTCLDY    41  32  70 NW8       30.10R
POTTSTOWN      PTCLDY    37  31  78 W3        30.10R
BLUE BELL      PTCLDY    37  32  81 CALM      30.08R
DOYLESTOWN     CLOUDY    41  33  73 NW7       30.07R
WILLOW GROVE   NOT AVBL
NORTH PHILA    CLOUDY    44  35  70 W5        30.10R
PHILADELPHIA   MOCLDY    47  33  58 NW10      30.10R
$$




USA.gov is the U.S. government's official web portal to all federal, state and local government web resources and services.